Tri-Cities Airport Airport (TRI)

 

Airport Diagram
Current Weather/Forecast (VFR Conditions)
METAR KTRI 251253Z 23008KT 10SM FEW017 SCT028 OVC041 04/02 A2998 RMK AO2 SLP145 T00390017
TAF KTRI 251135Z 2512/2612 23006KT P6SM BKN020 OVC045 TEMPO 2512/2514 SCT020 OVC040 FM251400 27008KT P6SM BKN025 FM260200 25005KT P6SM BKN020 FM260600 25010KT P6SM OVC020

All Charts
General
Chart Name Download
AIRPORT DIAGRAM
TAKEOFF MINIMUMS
ALTERNATE MINIMUMS

Departures
Chart Name Download
KINGS ONE
KINGS ONE, CONT.1

Approaches
Chart Name Download
ILS OR LOC RWY 05
ILS OR LOC RWY 23
ILS RWY 23 (SA CAT I)
ILS RWY 23 (CAT II)
RNAV (GPS) RWY 05
RNAV (GPS) RWY 09
RNAV (GPS) RWY 23
RNAV (GPS) RWY 27


Inbound Traffic (Arrivals)

No inbound traffic.


Outbound Traffic (Departures)

No outbound traffic.